Regional Weather Roundup
Issued by NWS Jackson, KY

Home | Current Version | Previous Version | Text Only | Print | Product List | Glossary Off
Versions: 1 2 3 4 5 6 7 8 9 10 11 12 13 14 15 16 17 18 19 20 21 22 23 24 25 26 27 28 29 30 31 32 33 34 35 36 37 38 39 40 41 42 43 44 45 46 47 48 49 50

000
ASUS43 KJKL 222010
RWRJKL

EAST KENTUCKY HOURLY WEATHER ROUNDUP
NATIONAL WEATHER SERVICE JACKSON KY
300 PM EST SUN JAN 22 2017

NOTE: "FAIR" INDICATES FEW OR NO CLOUDS BELOW 12,000 FEET WITH
NO SIGNIFICANT WEATHER AND/OR OBSTRUCTIONS TO VISIBILITY.

* THESE REPORTS ARE NOT UNDER NWS QUALITY CONTROL AND MAY NOT
  REPORT WEATHER SUCH AS PRECIPITATION AND FOG.

KYZ079-080-083-085-087-088-110-112-115-119-120-222100
...EASTERN KENTUCKY...

CITY           SKY/WX    TMP DP  RH WIND       PRES   REMARKS
JACKSON        PTSUNNY   58  52  80 CALM      29.39F
LONDON         CLOUDY    58  51  78 S6        29.37F
SOMERSET*      CLOUDY    54  54 100 CALM      29.38F
MONTICELLO*    MOSUNNY   59  54  82 N14       29.38F
WILLIAMSBURG*  CLOUDY    59  55  88 CALM      29.36F
MIDDLESBORO*   CLOUDY    59  56  90 CALM      29.38F
HARLAN APT*    CLOUDY    59  50  72 CALM      29.40F
PIKE CO APT*   CLOUDY    55  55  99 N6        29.41F
BIG SANDY APT* CLOUDY    59  54  83 E5        29.41F
MOREHEAD APT*  CLOUDY    57  50  77 E5        29.44F
ASHLAND*       CLOUDY    61  52  72 E5        29.43F
$$

KYZ035-036-041-042-044-050-067-078-099-222100
...CENTRAL KENTUCKY...

CITY           SKY/WX    TMP DP  RH WIND       PRES   REMARKS
MT STERLING*   DRIZZLE   55  52  88 E8        29.42F
FLEMING/MASON* PTSUNNY   58  50  76 E10       29.44F
DANVILLE*      CLOUDY    55  52  88 N8        29.39F
LEXINGTON      CLOUDY    57  51  80 NE9       29.41F
FRANKFORT      CLOUDY    59  49  69 NE6       29.41F
LOUISVILLE     CLOUDY    61  50  67 NW5       29.41F
LEBANON*       MOCLDY    57  54  88 N6        29.39F
GLASGOW*       MOSUNNY   64  53  68 NE7       29.35F
BOWLING GREEN  CLOUDY    66  54  65 NE12      29.34F
$$

KYZ091>093-OHZ055-061-077-WVZ005-015-034-035-042-222100
...SOUTHERN OHIO/WEST VIRGINIA...

CITY           SKY/WX    TMP DP  RH WIND       PRES   REMARKS
COVINGTON      CLOUDY    61  50  67 NE14      29.44F
COLUMBUS       CLOUDY    64  47  53 E12       29.48F
DAYTON         CLOUDY    61  48  62 NE9       29.49S
WILMINGTON     PTSUNNY   60  50  69 NE10      29.46F
HUNTINGTON     CLOUDY    59  50  72 NE6       29.44F
CHARLESTON     CLOUDY    60  50  69 E7        29.45F
BECKLEY        CLOUDY    53  48  83 E12G17    29.47F
BLUEFIELD      PTSUNNY   53  47  79 SE12      29.50R
LOGAN CO APT*  CLOUDY    57  54  88 CALM      29.44F
$$

VAZ002-007-008-TNZ017-027-036-066-071-222100
...SOUTHWEST VIRGINIA/EAST TENNESSEE...

CITY           SKY/WX    TMP DP  RH WIND       PRES   REMARKS
WISE*          PTSUNNY   59  46  63 S6        29.45S
JONESVILLE*    CLOUDY    61  54  77 CALM      29.43R
ABINGDON*      CLOUDY    64  53  68 E7        29.43S
BRISTOL        CLOUDY    66  49  54 S3        29.41R
MORRISTOWN*    CLOUDY    63  54  72 CALM      29.37F
SEVIERVILLE*   CLOUDY    63  52  67 E5        29.36F
KNOXVILLE      CLOUDY    66  51  58 W3        29.34F
LAFOLLETTE*    CLOUDY    59  55  88 E6        29.39F
OAK RIDGE      CLOUDY    64  52  64 CALM      29.36F
CROSSVILLE     PTSUNNY   60  50  69 SE6       29.34F
NASHVILLE      CLOUDY    66  52  60 N15G23    29.25F
$$

...KEY TO REMARKS...
VSB - VISIBILITY IN MILES
WCI - WIND CHILL INDEX
HX  - HEAT INDEX

$$



USA.gov is the U.S. government's official web portal to all federal, state and local government web resources and services.